Detroit, MI

3:22 AM EST on February 24, 2017 (GMT -0500)
Detroit City

Weather History for KDET - February, 2013

Change the Weather History Date:

Sunday, February 3, 2013

  Actual Average Record
Temperature  
Mean Temperature 16 °F -  
Max Temperature 21 °F 30 °F 55 °F (1991)
Min Temperature 10 °F 18 °F -2 °F (1951)
Degree Days  
Heating Degree Days 50    
Moisture  
Dew Point 10 °F    
Average Humidity 75    
Maximum Humidity 93    
Minimum Humidity 57    
Precipitation  
Precipitation 0.00 in - - ()
Sea Level Pressure  
Sea Level Pressure 29.93 in    
Wind  
Wind Speed 5 mph (West)    
Max Wind Speed 17 mph    
Max Gust Speed 26 mph    
Visibility 7 miles    
Events Fog , Snow    
Averages and records for this station are not official NWS values.
T = Trace of Precipitation, MM = Missing Value Source: NWS Daily Summary

Daily Weather History Graph

Daily Weather History Graph

Search for Another Location

Airport or City:

Trip Planner

Search our weather history database for the weather conditions in past years. The results will help you decide how hot, cold, wet, or windy it might be!

Date:

Astronomy

Feb. 03, 2013 Rise Set
Actual Time 7:43 AM EST 5:49 PM EST
Civil Twilight 7:13 AM EST 6:18 PM EST
Nautical Twilight 6:40 AM EST 6:52 PM EST
Astronomical Twilight 6:07 AM EST 7:25 PM EST
Moon 1:09 AM EST (2/3) 11:24 AM EST (2/3)
Length of Visible Light 11h 04m
Length of Day
10h 05m
Waning Gibbous, 49% of the Moon is Illuminated
Feb 3
Waning Gibbous
Feb 10
New
Feb 17
First Quarter
Feb 25
Full
Mar 4
Last Quarter

Hourly Weather History & Observations

Time (EST) Temp. Windchill Dew Point Humidity Pressure Visibility Wind Dir Wind Speed Gust Speed Precip Events Conditions
12:53 AM 12.9 °F - 6.1 °F 74% 30.03 in 10.0 mi Calm Calm - N/A   Overcast
1:53 AM 12.9 °F - 5.0 °F 71% 30.01 in 10.0 mi Calm Calm - N/A   Mostly Cloudy
2:53 AM 12.0 °F - 3.9 °F 70% 30.00 in 10.0 mi Calm Calm - N/A   Mostly Cloudy
3:53 AM 12.0 °F - 5.0 °F 73% 29.98 in 10.0 mi Calm Calm - N/A   Overcast
4:53 AM 12.0 °F 5.9 °F 3.9 °F 70% 29.96 in 10.0 mi NW 3.5 mph - N/A   Overcast
5:53 AM 12.9 °F 6.9 °F 3.9 °F 67% 29.95 in 10.0 mi WNW 3.5 mph - N/A   Overcast
6:22 AM 12.2 °F - 5.0 °F 73% 29.92 in 10.0 mi Calm Calm - N/A   Overcast
6:53 AM 10.9 °F 2.9 °F 3.9 °F 73% 29.94 in 10.0 mi WNW 4.6 mph - N/A   Mostly Cloudy
7:17 AM 10.4 °F 2.2 °F 3.2 °F 73% 29.91 in 10.0 mi West 4.6 mph - N/A   Partly Cloudy
7:53 AM 10.0 °F 3.6 °F 3.9 °F 76% 29.95 in 10.0 mi WNW 3.5 mph - N/A   Overcast
8:53 AM 10.9 °F 4.7 °F 3.9 °F 73% 29.95 in 10.0 mi WNW 3.5 mph - N/A   Mostly Cloudy
9:53 AM 14.0 °F 6.5 °F 3.9 °F 64% 29.95 in 10.0 mi West 4.6 mph - N/A   Overcast
10:53 AM 16.0 °F 7.4 °F 3.0 °F 57% 29.94 in 10.0 mi West 5.8 mph - N/A   Scattered Clouds
11:53 AM 17.1 °F 7.6 °F 5.0 °F 59% 29.92 in 10.0 mi West 6.9 mph - N/A   Partly Cloudy
12:53 PM 18.0 °F 6.9 °F 8.1 °F 65% 29.90 in 10.0 mi West 9.2 mph - N/A   Overcast
1:53 PM 19.9 °F 11.1 °F 12.0 °F 71% 29.88 in 10.0 mi WSW 6.9 mph - 0.00 in   Overcast
2:38 PM 21.2 °F 10.9 °F 12.2 °F 68% 29.84 in 10.0 mi West 9.2 mph - N/A   Overcast
2:53 PM 21.0 °F 11.4 °F 12.9 °F 71% 29.88 in 7.0 mi West 8.1 mph 16.1 mph 0.00 in Snow Light Snow
3:12 PM 21.2 °F 10.1 °F 14.0 °F 74% 29.84 in 4.0 mi WSW 10.4 mph - 0.00 in Snow Light Snow
3:53 PM 21.0 °F 10.6 °F 16.0 °F 81% 29.89 in 5.0 mi WSW 9.2 mph - 0.00 in Snow Light Snow
4:13 PM 19.4 °F 8.6 °F 15.8 °F 86% 29.86 in 1.8 mi WSW 9.2 mph - 0.00 in Snow Light Snow
4:53 PM 19.9 °F 10.1 °F 18.0 °F 92% 29.90 in 1.5 mi WSW 8.1 mph - 0.00 in Snow Light Snow
5:28 PM 21.2 °F 13.6 °F 19.4 °F 93% 29.88 in 1.0 mi West 5.8 mph - 0.00 in Snow Light Snow
5:36 PM 21.2 °F 12.6 °F 17.6 °F 86% 29.88 in 0.8 mi West 6.9 mph - 0.00 in Snow Light Snow
5:49 PM 21.2 °F 11.7 °F 19.4 °F 93% 29.88 in 1.5 mi West 8.1 mph - 0.00 in Snow Light Snow
5:51 PM 21.2 °F 12.6 °F 17.6 °F 86% 29.88 in 2.5 mi West 6.9 mph - 0.00 in Snow Light Snow
5:53 PM 21.0 °F 9.9 °F 18.0 °F 88% 29.91 in 4.0 mi West 10.4 mph - 0.00 in Snow Light Snow
6:17 PM 21.2 °F 9.5 °F 15.8 °F 80% 29.89 in 9.0 mi WNW 11.5 mph - 0.00 in   Overcast
6:27 PM 21.2 °F 12.6 °F 15.8 °F 80% 29.90 in 4.0 mi West 6.9 mph 17.3 mph 0.00 in Snow Light Snow
6:36 PM 21.2 °F 8.3 °F 14.0 °F 74% 29.90 in 6.0 mi WNW 13.8 mph 26.5 mph 0.00 in Snow Light Snow
6:43 PM 19.4 °F 4.5 °F 14.0 °F 80% 29.91 in 2.5 mi WNW 17.3 mph 25.3 mph 0.00 in Snow Light Snow
6:46 PM 19.4 °F 6.0 °F 15.8 °F 86% 29.91 in 1.0 mi WNW 13.8 mph 25.3 mph 0.00 in Fog , Snow Snow
6:53 PM 19.9 °F 7.9 °F 16.0 °F 85% 29.94 in 1.0 mi WNW 11.5 mph 20.7 mph 0.00 in Snow Light Snow
7:15 PM 19.4 °F 7.9 °F 15.8 °F 86% 29.92 in 5.0 mi WNW 10.4 mph 19.6 mph 0.00 in   Overcast
7:53 PM 19.9 °F 8.6 °F 15.8 °F 84% 29.97 in 5.0 mi WNW 10.4 mph 18.4 mph 0.00 in   Overcast
8:53 PM 18.0 °F 4.2 °F 5.0 °F 57% 30.00 in 10.0 mi WNW 13.8 mph 19.6 mph 0.00 in   Mostly Cloudy
9:53 PM 16.0 °F 5.3 °F 3.9 °F 59% 30.02 in 10.0 mi WNW 8.1 mph - N/A   Clear
10:53 PM 16.0 °F 6.3 °F 5.0 °F 62% 30.03 in 10.0 mi West 6.9 mph - N/A   Clear
11:53 PM 16.0 °F 8.8 °F 5.0 °F 62% 30.03 in 10.0 mi West 4.6 mph - N/A   Mostly Cloudy